Time,TemperatureF,DewpointF,PressureIn,WindDirection,WindDirectionDegrees,WindSpeedMPH,WindSpeedGustMPH,Humidity,HourlyPrecipIn,Conditions,Clouds,dailyrainin,SoftwareType,DateUTC
2013-01-12 00:10:00,57.8,57.0,30.25,WNW,290,1.0,3.0,98,0.01,,,0.01,weatherlink.com 1.10,2013-01-12 05:10:00,
2013-01-12 00:25:00,57.9,57.0,30.25,NW,314,1.0,3.0,98,0.01,,,0.01,weatherlink.com 1.10,2013-01-12 05:25:00,
2013-01-12 00:40:00,58.1,58.0,30.25,West,274,2.0,6.0,98,0.01,,,0.01,weatherlink.com 1.10,2013-01-12 05:40:00,
2013-01-12 00:55:00,58.4,58.0,30.25,WNW,293,2.0,8.0,98,0.01,,,0.01,weatherlink.com 1.10,2013-01-12 05:55:00,
2013-01-12 01:10:00,58.5,58.0,30.25,West,262,1.0,7.0,98,0.00,,,0.01,weatherlink.com 1.10,2013-01-12 06:10:00,
2013-01-12 01:25:00,58.4,58.0,30.25,West,266,1.0,3.0,98,0.00,,,0.01,weatherlink.com 1.10,2013-01-12 06:25:00,
2013-01-12 01:40:00,58.5,58.0,30.25,NNW,329,3.0,5.0,98,0.00,,,0.01,weatherlink.com 1.10,2013-01-12 06:40:00,
2013-01-12 01:55:00,58.4,58.0,30.25,West,269,1.0,2.0,98,0.01,,,0.02,weatherlink.com 1.10,2013-01-12 06:55:00,
2013-01-12 02:10:00,58.3,58.0,30.25,West,276,0.0,2.0,98,0.01,,,0.02,weatherlink.com 1.10,2013-01-12 07:10:00,
2013-01-12 02:25:00,58.2,58.0,30.25,WNW,294,0.0,1.0,98,0.01,,,0.02,weatherlink.com 1.10,2013-01-12 07:25:00,
2013-01-12 02:40:00,58.3,58.0,30.25,West,273,0.0,1.0,98,0.01,,,0.02,weatherlink.com 1.10,2013-01-12 07:40:00,
2013-01-12 02:55:00,58.6,58.0,30.25,WNW,292,0.0,3.0,98,0.00,,,0.02,weatherlink.com 1.10,2013-01-12 07:55:00,
2013-01-12 03:10:00,58.9,58.0,30.25,West,260,0.0,2.0,98,0.00,,,0.02,weatherlink.com 1.10,2013-01-12 08:10:00,
2013-01-12 03:25:00,58.8,58.0,30.25,West,269,0.0,1.0,98,0.00,,,0.02,weatherlink.com 1.10,2013-01-12 08:25:00,
2013-01-12 03:40:00,58.8,58.0,30.24,WNW,293,0.0,2.0,98,0.00,,,0.02,weatherlink.com 1.10,2013-01-12 08:40:00,
2013-01-12 03:55:00,58.9,58.0,30.24,WNW,302,1.0,3.0,98,0.00,,,0.02,weatherlink.com 1.10,2013-01-12 08:55:00,
2013-01-12 04:10:00,59.0,59.0,30.23,WNW,302,1.0,3.0,98,0.00,,,0.02,weatherlink.com 1.10,2013-01-12 09:10:00,
2013-01-12 04:25:00,59.1,59.0,30.23,NW,324,3.0,7.0,98,0.00,,,0.02,weatherlink.com 1.10,2013-01-12 09:25:00,
2013-01-12 04:40:00,59.0,58.0,30.23,WSW,257,1.0,5.0,97,0.00,,,0.02,weatherlink.com 1.10,2013-01-12 09:40:00,
2013-01-12 04:55:00,58.9,58.0,30.22,WSW,247,1.0,4.0,97,0.00,,,0.02,weatherlink.com 1.10,2013-01-12 09:55:00,
2013-01-12 05:10:00,58.7,58.0,30.22,WSW,252,2.0,3.0,98,0.00,,,0.02,weatherlink.com 1.10,2013-01-12 10:10:00,
2013-01-12 05:25:00,58.7,58.0,30.22,NW,307,1.0,5.0,98,0.00,,,0.02,weatherlink.com 1.10,2013-01-12 10:25:00,
2013-01-12 05:40:00,58.8,58.0,30.22,WSW,241,5.0,6.0,97,0.00,,,0.02,weatherlink.com 1.10,2013-01-12 10:40:00,
2013-01-12 05:55:00,58.9,58.0,30.22,WNW,283,3.0,8.0,97,0.00,,,0.02,weatherlink.com 1.10,2013-01-12 10:55:00,
2013-01-12 06:10:00,59.0,58.0,30.22,NNW,329,2.0,5.0,97,0.00,,,0.02,weatherlink.com 1.10,2013-01-12 11:10:00,
2013-01-12 06:25:00,59.0,58.0,30.22,WNW,290,1.0,6.0,97,0.00,,,0.02,weatherlink.com 1.10,2013-01-12 11:25:00,
2013-01-12 06:40:00,58.8,58.0,30.23,West,276,1.0,2.0,97,0.00,,,0.02,weatherlink.com 1.10,2013-01-12 11:40:00,
2013-01-12 06:55:00,58.7,58.0,30.23,West,270,2.0,3.0,97,0.00,,,0.02,weatherlink.com 1.10,2013-01-12 11:55:00,
2013-01-12 07:10:00,58.8,58.0,30.23,WSW,239,2.0,3.0,97,0.00,,,0.02,weatherlink.com 1.10,2013-01-12 12:10:00,
2013-01-12 07:25:00,59.0,58.0,30.23,WSW,252,4.0,5.0,96,0.00,,,0.02,weatherlink.com 1.10,2013-01-12 12:25:00,
2013-01-12 07:40:00,59.2,58.0,30.23,SW,235,4.0,5.0,95,0.00,,,0.02,weatherlink.com 1.10,2013-01-12 12:40:00,
2013-01-12 07:55:00,59.3,58.0,30.24,NW,312,4.0,7.0,95,0.00,,,0.02,weatherlink.com 1.10,2013-01-12 12:55:00,
2013-01-12 08:10:00,59.6,58.0,30.25,NW,304,1.0,6.0,95,0.00,,,0.02,weatherlink.com 1.10,2013-01-12 13:10:00,
2013-01-12 08:26:00,59.7,58.0,30.25,West,263,1.0,5.0,94,0.00,,,0.02,weatherlink.com 1.10,2013-01-12 13:26:00,
2013-01-12 08:41:00,59.7,58.0,30.25,WNW,293,1.0,5.0,94,0.00,,,0.02,weatherlink.com 1.10,2013-01-12 13:41:00,
2013-01-12 08:56:00,59.8,58.0,30.25,WNW,283,1.0,2.0,94,0.00,,,0.02,weatherlink.com 1.10,2013-01-12 13:56:00,
2013-01-12 09:11:00,60.4,58.0,30.25,WSW,244,0.0,3.0,93,0.00,,,0.02,weatherlink.com 1.10,2013-01-12 14:11:00,
2013-01-12 09:26:00,61.5,59.0,30.25,WNW,288,2.0,4.0,91,0.00,,,0.02,weatherlink.com 1.10,2013-01-12 14:26:00,
2013-01-12 09:41:00,61.6,59.0,30.25,WNW,298,1.0,2.0,91,0.00,,,0.02,weatherlink.com 1.10,2013-01-12 14:41:00,
2013-01-12 09:56:00,62.0,59.0,30.26,WNW,297,0.0,1.0,91,0.00,,,0.02,weatherlink.com 1.10,2013-01-12 14:56:00,
2013-01-12 10:11:00,62.6,60.0,30.26,WNW,303,0.0,1.0,90,0.00,,,0.02,weatherlink.com 1.10,2013-01-12 15:11:00,
2013-01-12 10:26:00,63.7,61.0,30.26,WSW,254,0.0,2.0,89,0.00,,,0.02,weatherlink.com 1.10,2013-01-12 15:26:00,
2013-01-12 10:41:00,64.7,61.0,30.26,WNW,283,0.0,2.0,87,0.00,,,0.02,weatherlink.com 1.10,2013-01-12 15:41:00,
2013-01-12 10:56:00,65.7,61.0,30.26,West,269,2.0,4.0,85,0.01,,,0.03,weatherlink.com 1.10,2013-01-12 15:56:00,
2013-01-12 11:11:00,66.4,61.0,30.25,NW,314,0.0,3.0,83,0.01,,,0.03,weatherlink.com 1.10,2013-01-12 16:11:00,
2013-01-12 11:26:00,66.6,61.0,30.25,West,264,0.0,3.0,83,0.01,,,0.03,weatherlink.com 1.10,2013-01-12 16:26:00,
2013-01-12 11:41:00,66.9,61.0,30.24,WNW,295,0.0,2.0,82,0.01,,,0.03,weatherlink.com 1.10,2013-01-12 16:41:00,
2013-01-12 11:56:00,69.0,62.0,30.23,NW,304,0.0,3.0,77,0.00,,,0.03,weatherlink.com 1.10,2013-01-12 16:56:00,
2013-01-12 12:11:00,69.1,61.0,30.22,NW,312,1.0,3.0,75,0.00,,,0.03,weatherlink.com 1.10,2013-01-12 17:11:00,
2013-01-12 12:26:00,69.0,60.0,30.22,SW,236,4.0,5.0,73,0.00,,,0.03,weatherlink.com 1.10,2013-01-12 17:26:00,
2013-01-12 12:41:00,68.7,60.0,30.22,WNW,294,3.0,8.0,74,0.00,,,0.03,weatherlink.com 1.10,2013-01-12 17:41:00,
2013-01-12 12:56:00,68.9,61.0,30.21,NE,46,2.0,7.0,76,0.00,,,0.03,weatherlink.com 1.10,2013-01-12 17:56:00,
2013-01-12 13:11:00,68.5,61.0,30.21,West,274,2.0,6.0,78,0.00,,,0.03,weatherlink.com 1.10,2013-01-12 18:11:00,
2013-01-12 13:26:00,69.2,62.0,30.21,WNW,295,1.0,7.0,78,0.00,,,0.03,weatherlink.com 1.10,2013-01-12 18:26:00,
2013-01-12 13:41:00,69.6,61.0,30.21,NNW,329,2.0,5.0,74,0.00,,,0.03,weatherlink.com 1.10,2013-01-12 18:41:00,
2013-01-12 13:56:00,69.9,61.0,30.21,West,264,3.0,5.0,73,0.00,,,0.03,weatherlink.com 1.10,2013-01-12 18:56:00,
2013-01-12 14:11:00,69.2,61.0,30.21,West,266,0.0,5.0,74,0.00,,,0.03,weatherlink.com 1.10,2013-01-12 19:11:00,
2013-01-12 14:26:00,69.1,61.0,30.21,WNW,298,3.0,7.0,75,0.00,,,0.03,weatherlink.com 1.10,2013-01-12 19:26:00,
2013-01-12 14:41:00,68.6,62.0,30.21,WSW,248,2.0,6.0,78,0.00,,,0.03,weatherlink.com 1.10,2013-01-12 19:41:00,
2013-01-12 14:56:00,68.2,61.0,30.21,WNW,283,2.0,5.0,79,0.00,,,0.03,weatherlink.com 1.10,2013-01-12 19:56:00,
2013-01-12 15:11:00,68.2,61.0,30.21,WNW,284,0.0,3.0,79,0.00,,,0.03,weatherlink.com 1.10,2013-01-12 20:11:00,
2013-01-12 15:26:00,67.7,61.0,30.21,NW,304,1.0,3.0,79,0.00,,,0.03,weatherlink.com 1.10,2013-01-12 20:26:00,
2013-01-12 15:41:00,67.3,61.0,30.21,West,276,2.0,5.0,79,0.00,,,0.03,weatherlink.com 1.10,2013-01-12 20:41:00,
2013-01-12 16:11:00,67.1,61.0,30.21,WNW,288,2.0,2.0,80,0.00,,,0.03,weatherlink.com 1.10,2013-01-12 21:11:00,
2013-01-12 16:26:00,66.6,60.0,30.21,West,260,0.0,3.0,80,0.00,,,0.03,weatherlink.com 1.10,2013-01-12 21:26:00,
2013-01-12 16:41:00,66.3,60.0,30.22,WNW,283,1.0,3.0,79,0.00,,,0.03,weatherlink.com 1.10,2013-01-12 21:41:00,
2013-01-12 17:11:00,65.0,59.0,30.22,WNW,297,1.0,4.0,80,0.00,,,0.03,weatherlink.com 1.10,2013-01-12 22:11:00,
2013-01-12 17:26:00,64.3,58.0,30.21,West,277,1.0,3.0,81,0.00,,,0.03,weatherlink.com 1.10,2013-01-12 22:26:00,
2013-01-12 17:41:00,63.4,58.0,30.22,WNW,283,1.0,2.0,83,0.00,,,0.03,weatherlink.com 1.10,2013-01-12 22:41:00,
2013-01-12 17:56:00,62.6,58.0,30.22,NW,309,1.0,3.0,85,0.00,,,0.03,weatherlink.com 1.10,2013-01-12 22:56:00,
2013-01-12 18:11:00,61.8,58.0,30.22,NW,308,0.0,1.0,87,0.00,,,0.03,weatherlink.com 1.10,2013-01-12 23:11:00,
2013-01-12 18:42:00,60.7,58.0,30.22,WNW,293,0.0,1.0,90,0.00,,,0.03,weatherlink.com 1.10,2013-01-12 23:42:00,
2013-01-12 18:57:00,60.4,58.0,30.22,WNW,297,1.0,3.0,90,0.00,,,0.03,weatherlink.com 1.10,2013-01-12 23:57:00,
2013-01-12 19:13:00,60.8,58.0,30.22,West,264,2.0,3.0,90,0.00,,,0.03,weatherlink.com 1.10,2013-01-13 00:13:00,
2013-01-12 19:27:00,60.7,58.0,30.22,West,260,0.0,5.0,90,0.00,,,0.03,weatherlink.com 1.10,2013-01-13 00:27:00,
2013-01-12 19:42:00,60.8,58.0,30.22,WNW,297,3.0,4.0,91,0.00,,,0.03,weatherlink.com 1.10,2013-01-13 00:42:00,
2013-01-12 19:57:00,60.7,58.0,30.22,WNW,294,3.0,4.0,91,0.00,,,0.03,weatherlink.com 1.10,2013-01-13 00:57:00,
2013-01-12 20:12:00,60.6,58.0,30.22,WNW,302,1.0,4.0,92,0.00,,,0.03,weatherlink.com 1.10,2013-01-13 01:12:00,
2013-01-12 20:28:00,60.3,58.0,30.22,WNW,298,0.0,3.0,93,0.00,,,0.03,weatherlink.com 1.10,2013-01-13 01:28:00,
2013-01-12 20:42:00,59.9,58.0,30.21,WNW,283,0.0,2.0,93,0.00,,,0.03,weatherlink.com 1.10,2013-01-13 01:42:00,
2013-01-12 20:57:00,59.7,58.0,30.21,WNW,283,0.0,4.0,94,0.00,,,0.03,weatherlink.com 1.10,2013-01-13 01:57:00,
2013-01-12 21:12:00,59.7,58.0,30.21,WNW,295,0.0,3.0,94,0.00,,,0.03,weatherlink.com 1.10,2013-01-13 02:12:00,
2013-01-12 21:27:00,59.8,58.0,30.21,NW,318,3.0,4.0,94,0.00,,,0.03,weatherlink.com 1.10,2013-01-13 02:27:00,
2013-01-12 21:42:00,59.6,58.0,30.21,West,277,1.0,3.0,94,0.00,,,0.03,weatherlink.com 1.10,2013-01-13 02:42:00,
2013-01-12 21:57:00,59.3,58.0,30.20,WNW,285,2.0,4.0,95,0.00,,,0.03,weatherlink.com 1.10,2013-01-13 02:57:00,
2013-01-12 22:12:00,59.0,58.0,30.20,NW,325,1.0,2.0,95,0.00,,,0.03,weatherlink.com 1.10,2013-01-13 03:12:00,
2013-01-12 22:27:00,58.7,58.0,30.20,NW,309,1.0,3.0,96,0.00,,,0.03,weatherlink.com 1.10,2013-01-13 03:27:00,
2013-01-12 22:42:00,59.0,58.0,30.20,WNW,298,1.0,2.0,95,0.00,,,0.03,weatherlink.com 1.10,2013-01-13 03:42:00,
2013-01-12 22:57:00,58.8,57.0,30.20,WSW,253,1.0,2.0,94,0.00,,,0.03,weatherlink.com 1.10,2013-01-13 03:57:00,
2013-01-12 23:12:00,59.2,57.0,30.21,NW,306,0.0,3.0,93,0.00,,,0.03,weatherlink.com 1.10,2013-01-13 04:12:00,
2013-01-12 23:27:00,59.1,57.0,30.20,WSW,257,0.0,3.0,93,0.00,,,0.03,weatherlink.com 1.10,2013-01-13 04:27:00,
2013-01-12 23:42:00,58.7,57.0,30.20,NW,305,0.0,2.0,93,0.00,,,0.03,weatherlink.com 1.10,2013-01-13 04:42:00,
2013-01-12 23:57:00,58.7,57.0,30.20,WNW,297,1.0,2.0,93,0.00,,,0.03,weatherlink.com 1.10,2013-01-13 04:57:00,